Simultaneous Nadir Overpasses (SNOs) Predictions

Prediction of SNOs between AURA and NPP Satellite Orbit:

Table of predicted SNOs for the next 14.0 days since TLE Epoch: 9/10/2022
Index Date (AURA) Time (AURA) Lat,Lon (AURA) SZA (AURA ) Date (NPP) Time (NPP) Lat,Lon (NPP) SZA (NPP ) Distance(km) Time Diff (sec)
1 09/11/2022 19:08:54 -79.38, -31.15 91.87 09/11/2022 19:08:46 -79.37, -31.28 91.84 2.77 8
2 09/11/2022 19:58:12 79.68, 138.58 87.72 09/11/2022 19:59:21 79.68, 138.60 87.66 0.46 69
3 09/14/2022 10:36:03 79.23, -83.90 89.30 09/14/2022 10:35:01 79.23, -83.94 89.35 0.81 62
4 09/14/2022 11:25:22 -79.55, 85.87 91.15 09/14/2022 11:25:37 -79.55, 85.92 91.17 1.11 15
5 09/17/2022 02:52:32 79.34, 32.68 90.12 09/17/2022 02:51:54 79.34, 32.67 90.15 0.44 38
6 09/17/2022 03:41:52 -79.62,-157.76 90.28 09/17/2022 03:42:31 -79.62,-157.68 90.32 1.55 39
7 09/19/2022 19:08:59 79.47, 149.41 90.91 09/19/2022 19:08:45 79.48, 149.55 90.90 2.95 14
8 09/19/2022 19:58:22 -79.63, -41.79 89.32 09/19/2022 19:59:26 -79.63, -41.86 89.35 1.42 64
9 09/22/2022 10:36:10 -79.24, 96.14 87.81 09/22/2022 10:35:04 -79.24, 96.13 87.76 0.45 66



Historial Predications of SNOs between AURA and NPP
